Location: Boston
(42.3580°N, 71.0600°W)
Time: 03:13:36
(UTC-04:00)

Envisat - Pass Details

Date: 08 October 2017
Orbit: 764 x 766 km, 98.2° (Epoch: 19 October)

Event Time Altitude Azimuth Distance (km) Brightness Sun altitude
Exits shadow 20:41:25 75° 247° (WSW) 795 3.0 -27.9°
Maximum altitude 20:41:30 75° 258° (WSW) 794 3.0 -27.9°
Drops below altitude 10° 20:46:36 10° 344° (NNW) 2,311 5.9 -28.8°
Sets 20:48:55 0° 346° (NNW) 3,241 6.7 -29.2°
